Home > Weather > Durango > Past weeks

Flag for U.S.A. Weather for the Past 2 Weeks in Durango, Colorado, U.S.A.

Now
8 °F

Clear.


Feels Like: 0 °F
Forecast: 16 / 46 °F
Wind: 5 mph from Northeast

Location: Durango-La Plata County Airport

Current Time: Feb 10, 2016 at 6:10:37 AM

Latest Report: Feb 10, 2016 at 4:53 AM


Visibility: 10 mi

Pressure: 30.57 "Hg (23.53 "Hg at 1989m altitude)

Humidity: 83%

Dew point: 4 °F

Location of DurangoLocation

Historic Weather in Durango — Graph

°F

Durango Temperature Yesterday

Maximum temperature yesterday: 43 °F (at 4:53 PM)
Minimum temperature yesterday: 9 °F (at 3:53 AM)
Average temperature yesterday: 25 °F

High & Low Weather Summary for the Past Weeks

 TemperatureHumidityPressure
High43 °F (Jan 30, 12:53 PM)96% (Jan 31, 11:53 AM)30.79 "Hg (Jan 31, 11:53 AM)
Low-8 °F (Feb 5, 6:53 AM)38% (Jan 30, 12:53 PM)29.45 "Hg (Feb 1, 5:01 AM)
Average20 °F73%30.34 "Hg
* Reported Jan 26 4:53 AM — Feb 10 4:53 AM, Durango, Weather by CustomWeather, © 2016

Note: Actual official high and low records may vary slightly from our data, if they occured in-between our weather recording intervals... More about our weather records

Advertising

Durango Weather History for the Previous 24 Hours

 ConditionsComfort  
Time TempWeatherWind HumidityBarometerVisibility
4:53 AM
Wed, Feb 10
8 °FClear.5 mph83%30.57 "Hg10 mi
3:53 AM13 °FClear.No wind84%30.55 "Hg10 mi
2:53 AM14 °FClear.5 mph84%30.54 "Hg10 mi
1:53 AM19 °FClear.7 mph74%30.52 "Hg10 mi
12:53 AM21 °FClear.5 mph74%30.53 "Hg10 mi
11:53 PM
Tue, Feb 9
23 °FClear.7 mph72%30.54 "Hg10 mi
10:53 PM20 °FClear.No wind78%30.57 "Hg10 mi
9:53 PM23 °FClear.3 mph72%30.59 "Hg10 mi
8:53 PM23 °FClear.3 mph74%30.59 "Hg10 mi
7:53 PM31 °FClear.7 mph61%30.57 "Hg10 mi
6:53 PM34 °FClear.No wind56%30.57 "Hg10 mi
5:53 PM35 °FClear.No wind54%30.54 "Hg10 mi
4:53 PM43 °FSunny.3 mph38%30.49 "Hg10 mi
3:53 PM40 °FSunny.5 mph49%30.51 "Hg10 mi
2:53 PM42 °FSunny.3 mph38%30.46 "Hg10 mi
1:53 PM41 °FSunny.6 mph47%30.48 "Hg10 mi
12:53 PM37 °FSunny.3 mph54%30.50 "Hg10 mi
11:53 AM35 °FSunny.7 mph59%30.55 "Hg10 mi
10:53 AM29 °FSunny.6 mph66%30.59 "Hg10 mi
9:53 AM23 °FSunny.No wind72%30.63 "Hg10 mi
8:53 AM19 °FSunny.No wind77%30.60 "Hg10 mi
7:53 AM15 °FSunny.5 mph83%30.61 "Hg10 mi
6:53 AM10 °FClear.5 mph84%30.60 "Hg10 mi
Weather by CustomWeather, © 2016

See weather overviewHow to use our weather pages